Temperature
28 28 28 29 30 31 32 32 32 33 34 33 33 32 33 33 33 32 31 30 28 27 26 24 23 22 21 21 20 20 20 20 19 19 19 19 19 19 19 19 19 19 19 18
28 27 29 31 31 31 31 31 32 33 34 33 32 32 33 33 33 32 31 30 29 27 26 24 23 22 21 21 20 20 20 20 20 19 19 19 19 19 19 19 19 18 18 18
28 29 30 30 31 31 31 31 32 32 33 32 31 31 32 32 32 32 31 30 29 28 26 24 23 22 21 20 20 20 20 20 20 20 19 19 18 18 18 18 18 18 18 18
29 30 31 30 30 31 30 32 32 32 31 31 31 30 31 31 31 32 31 30 29 28 26 25 23 22 21 21 20 20 20 20 20 20 19 19 19 19 19 19 19 18 18 18
29 30 30 30 31 31 31 32 32 31 31 30 31 30 30 31 30 30 31 30 30 28 27 25 24 22 22 21 20 20 20 20 20 20 20 19 19 19 19 19 19 18 18 18
30 31 31 31 32 32 32 31 31 30 30 28 30 30 29 30 29 29 30 30 29 28 27 25 24 23 22 21 20 20 20 20 20 20 19 19 19 19 19 18 18 18 18 18
29 30 31 32 31 31 31 30 28 28 28 28 30 30 29 29 29 29 30 30 29 28 27 25 24 23 22 21 20 20 20 20 20 19 19 19 19 19 19 18 18 18 18 18
27 28 30 31 30 30 30 30 28 27 28 29 30 29 29 30 29 29 29 29 29 28 27 26 24 23 22 21 20 20 20 20 20 19 19 19 19 19 18 18 18 18 18 18
28 28 31 31 31 31 30 30 31 30 29 29 29 28 29 30 30 30 29 29 29 28 27 26 25 23 22 21 21 20 20 20 19 19 19 19 19 19 18 18 18 18 18 18
30 29 30 31 31 31 31 31 30 29 28 28 28 27 28 29 29 30 30 29 28 27 26 25 24 23 22 22 21 20 20 19 19 19 19 19 19 18 18 18 18 18 18 17
30 29 29 30 29 30 30 30 30 30 29 28 27 27 30 29 30 30 30 29 28 27 26 25 24 23 22 21 21 20 20 19 19 19 19 19 18 18 18 18 18 18 18 18
29 29 29 29 31 31 31 30 30 28 28 28 27 26 29 29 30 30 29 28 27 26 26 24 23 23 22 21 21 20 20 19 19 19 19 18 18 18 18 18 18 18 18 17
29 28 27 28 29 30 30 30 30 30 29 28 27 27 28 29 29 29 28 27 26 25 25 23 23 22 21 21 20 20 20 19 19 19 19 18 18 18 18 18 18 17 17 17
29 28 27 27 28 29 29 30 30 30 29 28 28 27 28 28 28 28 27 26 25 24 23 22 22 21 21 20 20 20 19 19 19 19 18 18 18 18 17 17 17 17 17 17
29 27 27 28 29 29 29 30 30 30 30 29 29 28 27 27 27 27 26 26 25 24 23 22 21 20 20 20 19 19 19 19 19 18 18 18 18 18 17 17 17 17 17 17
28 27 27 27 28 29 29 29 30 30 30 30 29 27 28 27 27 26 26 25 24 23 22 21 21 20 20 19 19 19 19 18 18 18 18 18 17 17 17 17 17 17 17 17
27 26 25 26 27 27 27 28 29 30 30 29 28 26 26 26 26 25 25 24 23 22 22 21 20 20 19 19 18 18 18 18 18 18 17 17 17 17 17 17 17 16 16 16
25 25 25 25 26 24 27 29 29 29 29 29 28 26 26 25 24 24 24 23 22 21 21 20 19 19 19 18 18 18 18 18 17 17 17 17 17 17 16 16 16 16 16 16
26 25 25 24 24 25 27 28 28 28 27 27 27 26 25 24 23 23 22 21 21 20 19 19 18 18 18 18 17 17 17 17 17 17 16 16 16 16 16 16 16 16 16 16
25 25 24 24 23 23 25 27 27 27 25 25 25 25 24 24 24 22 20 20 19 19 18 18 17 17 17 17 17 17 17 16 16 16 16 16 16 16 16 16 16 15 15 15
24 24 23 23 23 23 24 25 26 25 23 24 23 23 23 23 22 20 19 18 18 17 17 17 17 16 16 16 16 16 16 16 16 16 16 16 15 16 16 15 15 15 15 15
24 24 23 23 22 22 23 24 24 22 23 23 23 22 21 20 19 18 18 17 17 17 16 16 16 16 16 16 16 15 15 15 15 15 15 15 15 15 15 15 15 15 15 14
24 23 22 21 21 20 21 21 21 22 22 22 21 21 20 19 18 17 17 17 17 16 16 15 15 15 15 15 15 15 15 15 15 15 15 15 15 15 14 14 14 14 14 13
23 23 22 21 20 20 21 21 21 21 21 21 20 20 19 18 17 17 16 16 16 15 15 15 15 14 14 14 14 14 14 14 14 14 14 14 14 14 14 14 14 13 13 13
21 22 21 20 20 20 20 20 20 20 20 20 19 19 18 17 16 16 15 15 15 15 14 14 14 14 14 14 14 14 14 14 14 14 13 13 13 13 13 13 13 13 12 12
21 20 20 19 19 20 19 19 19 19 19 18 18 17 17 16 15 15 15 14 14 14 14 14 13 13 13 13 13 13 13 13 13 13 13 13 13 12 12 12 12 11 12 11
Wind_Speed
15 15 17 19 21 20 19 16 14 10 8 10 12 11 9 10 10 11 12 14 15 16 17 17 17 17 16 15 15 14 13 12 11 9 9 8 7 6 5 6 10 12 11 11
16 21 21 19 19 20 20 18 16 9 8 9 10 12 11 10 11 10 12 13 15 17 17 17 17 17 17 15 15 15 14 14 12 9 8 7 7 7 6 5 8 12 11 11
23 17 21 21 20 19 19 17 16 12 8 9 10 13 13 12 11 11 11 12 14 17 19 19 18 17 17 17 16 16 14 13 13 11 8 7 5 6 6 6 7 8 11 11
21 22 17 19 20 19 16 16 15 13 11 9 12 12 11 11 11 12 12 13 14 15 18 19 19 18 17 16 16 13 14 13 13 12 11 11 10 9 9 7 7 8 10 10
18 20 20 18 18 17 15 14 13 12 11 12 13 13 9 11 12 12 12 12 13 14 16 19 19 17 16 16 15 14 13 13 13 12 12 11 11 9 8 8 9 9 9 9
20 18 18 18 16 16 14 12 11 11 11 15 17 15 9 8 10 11 11 11 11 12 14 16 16 15 14 15 14 14 13 13 12 13 13 12 12 10 9 8 9 9 8 8
20 20 18 16 17 17 16 12 10 10 12 14 16 14 6 5 8 9 10 11 12 12 13 15 16 16 14 14 14 13 13 13 13 13 13 13 12 11 10 9 9 9 8 9
19 19 19 17 18 16 18 18 13 10 11 12 13 10 6 9 10 8 8 9 10 11 12 14 15 14 14 14 13 13 13 13 13 13 12 12 11 10 9 9 9 9 8 8
15 18 19 19 18 18 19 19 20 15 13 8 7 5 6 9 11 12 12 10 9 9 10 11 12 12 12 12 12 12 12 11 11 11 11 11 11 10 10 9 8 8 7 7
14 13 17 18 16 19 19 19 14 14 12 11 8 10 10 14 12 12 10 10 10 10 10 10 10 9 9 9 9 10 10 10 10 10 10 10 11 10 9 8 9 8 8 7
19 12 14 18 19 20 19 20 16 12 11 11 6 4 4 11 12 11 11 10 10 11 10 10 9 8 8 7 8 8 8 9 8 8 8 8 8 9 9 8 9 8 7 7
17 12 12 17 17 17 18 19 18 13 11 10 6 3 3 7 9 10 12 11 10 10 10 10 9 8 7 7 6 7 8 8 8 8 7 7 7 7 8 8 7 7 7 7
14 11 11 14 16 17 18 19 18 16 11 10 9 5 7 8 9 10 12 12 11 10 10 9 8 7 6 6 5 5 6 7 7 6 6 6 6 7 6 6 6 6 7 7
10 10 11 13 13 17 18 19 18 17 12 12 9 8 9 8 9 9 11 12 12 11 10 9 8 7 6 5 5 4 4 4 5 5 6 5 5 5 4 4 4 5 5 6
10 13 14 14 12 12 16 19 19 18 16 13 8 9 10 10 9 9 11 12 12 12 11 9 8 6 6 5 4 3 3 4 4 5 5 4 4 4 4 4 4 4 4 5
9 9 12 14 14 12 14 17 18 18 16 14 8 4 7 11 10 9 10 12 12 11 10 10 8 7 6 5 4 4 5 4 4 4 4 4 4 4 4 4 4 4 3 3
10 8 10 12 12 11 12 14 14 14 13 12 8 5 6 9 11 10 10 11 12 11 10 9 7 6 5 4 4 4 5 5 5 4 4 4 4 4 4 4 5 4 3 3
7 7 7 9 10 13 10 11 11 10 9 8 7 11 9 10 11 9 10 11 11 10 9 8 7 6 5 5 5 4 4 5 5 5 4 4 4 4 4 4 4 4 3 3
8 8 8 8 10 11 8 9 8 7 4 4 9 13 13 13 12 9 10 11 11 10 10 8 7 6 6 5 4 5 6 6 5 5 5 4 4 4 4 5 4 4 4 4
10 8 7 6 8 8 4 3 2 4 5 5 7 10 12 12 8 8 10 12 11 11 10 8 7 7 7 6 6 7 7 6 6 5 5 5 5 5 5 5 5 5 6 7
13 11 11 10 7 5 4 3 3 6 5 6 7 7 8 5 7 12 13 12 12 11 10 9 8 7 6 6 7 7 7 6 5 6 6 6 6 6 6 6 6 7 8 8
11 11 11 9 8 4 4 1 2 5 7 7 8 10 12 14 15 14 13 12 11 11 11 10 8 8 7 7 7 7 7 6 6 7 9 9 8 7 7 8 8 8 8 9
5 1 1 1 1 3 7 8 6 6 7 8 9 12 13 15 14 12 12 12 11 11 9 9 9 8 8 8 8 8 7 7 8 10 10 10 10 10 9 9 9 7 7 7
3 2 3 4 6 5 6 7 7 8 8 9 10 11 13 14 14 13 12 11 10 10 10 9 10 10 9 9 9 8 8 8 10 11 11 10 11 11 11 10 9 8 6 6
1 1 2 4 6 5 6 6 7 9 10 10 11 12 13 15 14 13 12 11 10 10 10 10 10 10 10 10 9 9 8 9 11 11 11 11 11 12 12 12 11 10 9 7
3 2 1 3 5 5 6 6 7 9 10 10 12 13 13 14 13 13 12 11 11 11 10 10 11 11 11 10 10 9 8 9 10 10 10 9 9 10 11 12 12 17 15 17
Wind_Direction
207 218 224 225 225 240 256 265 261 245 205 210 229 240 226 212 209 191 181 175 173 173 173 170 170 171 171 168 168 173 177 171 171 178 182 187 186 187 189 183 171 170 180 181
209 223 230 235 236 238 249 260 264 252 208 217 234 240 239 222 212 204 186 180 178 173 170 170 172 174 175 174 174 177 182 179 181 183 185 189 184 185 191 192 168 176 184 182
218 222 221 233 239 238 241 246 252 249 233 227 246 245 237 222 210 200 192 183 183 178 173 173 177 178 179 180 182 185 185 184 186 182 183 189 181 190 196 189 176 184 187 188
228 236 226 221 231 235 238 242 249 251 244 234 232 247 226 208 207 202 194 188 185 183 175 175 179 180 183 183 184 184 183 186 189 186 190 190 192 195 198 188 182 187 192 193
224 227 232 228 227 229 237 240 242 248 251 254 245 249 233 197 201 204 197 194 188 182 177 175 179 180 184 185 185 185 184 188 189 193 197 196 202 202 197 189 183 186 191 196
234 226 225 229 228 228 231 235 235 244 250 244 245 248 242 212 194 202 197 191 181 177 176 171 172 174 181 184 185 185 186 190 191 196 202 204 206 204 199 192 186 188 190 197
229 232 221 220 220 215 218 216 212 219 228 239 235 238 229 175 173 196 200 183 173 174 169 166 170 174 180 184 185 186 187 192 195 200 205 207 209 207 202 200 195 194 195 196
215 221 217 212 218 211 211 216 219 219 227 233 224 224 197 149 149 164 177 169 168 169 165 167 168 173 180 183 184 186 189 194 197 203 206 209 210 211 209 208 205 202 204 201
213 217 212 210 213 219 210 220 233 249 267 253 216 198 167 159 158 158 165 162 161 157 159 159 163 170 178 181 184 188 190 194 197 203 203 208 210 212 211 208 210 210 209 208
241 224 207 200 206 220 224 217 230 243 261 262 220 198 197 172 171 166 163 158 150 150 157 155 153 159 168 176 178 184 186 193 198 202 203 208 208 211 209 211 214 209 207 208
236 238 213 197 204 211 218 220 227 234 247 252 238 220 197 163 161 162 157 151 150 155 153 148 145 148 153 158 168 174 180 186 192 199 202 208 203 206 206 209 212 209 203 201
226 234 221 203 204 219 222 223 223 232 239 257 258 222 166 149 156 157 144 141 140 141 139 135 135 140 145 151 161 167 173 181 186 191 193 201 201 200 203 207 206 199 197 199
219 234 224 208 202 212 224 223 226 229 240 245 246 184 156 156 156 144 137 132 130 128 123 123 124 129 132 137 140 148 166 176 178 177 182 190 197 198 198 196 193 192 193 195
221 228 233 220 206 201 216 221 221 224 229 235 233 167 167 157 141 134 131 132 133 127 123 121 118 118 118 120 127 141 155 162 163 164 172 178 183 184 186 179 177 184 189 190
221 224 236 253 248 217 216 219 219 223 226 233 211 183 171 158 149 144 137 136 133 131 129 124 122 118 118 118 119 128 134 133 144 151 160 163 165 167 172 169 167 170 180 183
219 235 233 247 253 234 222 219 219 221 223 231 217 191 142 133 134 141 144 141 135 132 130 127 124 122 119 123 131 123 116 111 116 132 141 143 145 150 149 149 151 150 154 163
208 226 237 239 236 236 227 220 221 221 222 226 211 174 144 138 143 145 145 138 133 129 124 121 117 114 109 110 108 114 117 116 114 114 111 118 133 139 139 149 143 144 146 144
224 223 238 244 234 230 232 220 223 218 221 219 161 142 151 137 125 121 123 122 122 121 116 113 114 105 96 96 105 105 109 110 111 109 104 105 120 125 127 128 131 133 128 125
218 220 233 238 237 232 227 221 216 192 187 127 131 133 132 129 124 113 110 112 110 109 106 99 97 96 86 83 93 101 97 95 95 93 87 84 94 106 112 118 120 123 121 112
204 212 231 230 231 230 233 235 234 173 171 104 118 134 142 155 158 131 117 112 110 106 104 101 97 93 84 76 82 92 92 87 85 87 84 80 82 88 90 98 103 104 105 99
199 204 221 234 236 237 287 282 219 201 155 114 129 138 150 144 106 123 120 113 110 107 104 100 94 91 83 79 84 89 86 84 85 90 86 80 82 86 84 91 96 102 102 98
204 210 215 226 231 228 338 15 71 82 96 114 122 119 112 108 108 113 114 113 112 110 106 102 95 89 83 84 88 88 83 81 85 86 81 76 73 76 83 88 90 95 100 98
212 212 186 129 128 82 54 76 77 84 97 106 107 112 117 117 116 119 114 109 104 101 99 100 99 92 84 85 89 90 85 84 88 86 81 79 75 70 69 75 81 83 85 93
174 128 150 120 116 101 81 83 77 84 94 102 108 115 121 121 125 119 112 108 103 98 95 95 95 91 84 81 83 86 92 95 94 93 88 84 80 73 64 61 61 64 62 80
337 189 149 146 134 109 91 88 91 89 96 105 106 112 119 121 122 119 114 110 105 101 95 93 92 90 87 83 81 84 92 100 99 98 96 91 86 84 76 68 57 65 55 57
329 21 129 133 134 126 112 96 104 100 97 106 111 111 114 116 119 118 113 108 105 102 99 97 93 90 88 84 82 84 92 101 103 103 102 101 100 97 95 91 79 60 65 62
Height
1464 1467 1465 1460 1456 1454 1450 1449 1448 1441 1436 1444 1450 1452 1449 1451 1454 1457 1463 1469 1475 1480 1486 1492 1497 1501 1505 1508 1511 1515 1519 1522 1525 1529 1532 1536 1539 1542 1544 1547 1549 1551 1554 1556
1461 1462 1455 1451 1449 1449 1450 1453 1449 1441 1437 1444 1450 1451 1447 1448 1451 1455 1459 1466 1472 1478 1484 1489 1494 1498 1501 1505 1508 1511 1515 1519 1522 1526 1530 1533 1536 1539 1542 1545 1547 1549 1552 1554
1455 1448 1447 1449 1448 1450 1449 1451 1449 1447 1442 1443 1451 1456 1449 1446 1449 1453 1457 1462 1468 1474 1479 1485 1490 1494 1498 1502 1505 1508 1512 1516 1520 1523 1527 1531 1534 1537 1540 1542 1544 1546 1549 1551
1447 1442 1440 1444 1446 1446 1452 1443 1443 1445 1450 1455 1455 1467 1451 1445 1448 1451 1455 1459 1465 1470 1475 1481 1486 1491 1495 1498 1502 1506 1509 1513 1516 1520 1523 1526 1529 1531 1535 1538 1540 1543 1546 1549
1442 1438 1438 1441 1441 1441 1444 1438 1441 1445 1451 1457 1453 1461 1453 1444 1450 1451 1453 1457 1461 1467 1471 1477 1482 1487 1492 1496 1499 1503 1506 1509 1512 1516 1519 1522 1525 1528 1532 1535 1537 1540 1542 1545
1433 1430 1432 1434 1435 1437 1438 1441 1444 1448 1454 1470 1458 1460 1458 1446 1449 1451 1452 1455 1459 1464 1469 1474 1480 1485 1490 1494 1497 1500 1503 1506 1509 1512 1515 1518 1521 1525 1528 1530 1533 1536 1538 1541
1436 1429 1427 1430 1435 1436 1439 1451 1468 1473 1473 1468 1447 1452 1452 1441 1442 1447 1451 1453 1458 1462 1467 1472 1478 1482 1487 1491 1494 1496 1499 1502 1505 1508 1511 1514 1517 1520 1523 1526 1529 1531 1534 1536
1440 1440 1426 1426 1431 1436 1440 1446 1464 1474 1470 1457 1444 1451 1445 1437 1441 1444 1450 1452 1456 1460 1465 1470 1475 1480 1484 1487 1490 1493 1496 1498 1501 1504 1507 1510 1513 1516 1519 1522 1525 1527 1530 1532
1429 1433 1420 1421 1424 1429 1438 1441 1437 1447 1449 1456 1453 1449 1444 1437 1440 1443 1447 1451 1455 1459 1464 1468 1473 1478 1482 1485 1488 1491 1493 1495 1498 1500 1503 1506 1509 1511 1514 1517 1520 1523 1526 1529
1417 1427 1418 1418 1422 1425 1427 1433 1440 1449 1462 1467 1458 1455 1450 1442 1441 1441 1445 1449 1454 1459 1464 1468 1472 1477 1481 1484 1487 1489 1491 1492 1495 1497 1500 1502 1505 1507 1510 1513 1516 1518 1521 1524
1414 1424 1420 1418 1426 1429 1430 1432 1434 1438 1444 1458 1469 1462 1433 1435 1436 1439 1443 1448 1454 1459 1463 1468 1472 1476 1480 1483 1485 1487 1489 1490 1492 1494 1497 1499 1501 1503 1506 1509 1511 1514 1517 1519
1412 1417 1423 1420 1415 1416 1421 1425 1431 1446 1449 1445 1458 1462 1433 1433 1435 1439 1443 1449 1454 1459 1464 1469 1473 1476 1479 1481 1484 1485 1487 1489 1490 1492 1494 1496 1498 1500 1503 1505 1507 1510 1512 1515
1412 1419 1433 1432 1427 1421 1421 1420 1423 1428 1436 1445 1454 1456 1434 1436 1438 1440 1445 1450 1456 1460 1465 1469 1472 1476 1479 1481 1483 1485 1486 1488 1489 1491 1493 1495 1496 1498 1500 1502 1504 1507 1509 1512
1411 1418 1427 1435 1426 1421 1424 1421 1419 1426 1438 1442 1442 1445 1439 1438 1440 1444 1447 1453 1457 1462 1466 1470 1473 1476 1479 1480 1482 1484 1485 1487 1488 1490 1491 1493 1495 1496 1498 1500 1502 1504 1506 1509
1410 1419 1420 1417 1412 1413 1417 1418 1418 1422 1425 1433 1434 1437 1438 1438 1441 1446 1449 1454 1459 1463 1468 1471 1474 1477 1479 1481 1482 1484 1485 1486 1487 1488 1490 1492 1493 1495 1496 1498 1500 1503 1505 1507
1412 1419 1421 1422 1414 1413 1416 1414 1415 1417 1420 1424 1428 1436 1433 1437 1444 1448 1452 1456 1460 1464 1468 1472 1475 1477 1479 1481 1482 1484 1485 1486 1487 1488 1490 1491 1492 1494 1495 1497 1499 1501 1503 1505
1414 1422 1427 1428 1418 1419 1426 1415 1415 1416 1416 1421 1431 1436 1436 1441 1445 1450 1454 1457 1461 1465 1469 1472 1475 1478 1480 1482 1483 1484 1485 1486 1487 1488 1489 1490 1492 1493 1495 1497 1498 1500 1502 1503
1418 1423 1425 1428 1428 1443 1421 1406 1409 1414 1417 1418 1425 1431 1437 1442 1448 1453 1456 1459 1463 1467 1470 1473 1476 1478 1480 1482 1483 1484 1485 1486 1487 1489 1489 1491 1492 1493 1495 1496 1498 1499 1501 1502
1415 1422 1427 1431 1436 1431 1418 1410 1411 1418 1424 1423 1427 1433 1439 1445 1450 1455 1459 1462 1465 1468 1471 1474 1477 1479 1481 1482 1483 1485 1485 1487 1488 1489 1490 1491 1492 1494 1495 1496 1497 1499 1501 1502
1414 1419 1428 1432 1440 1441 1425 1413 1413 1418 1432 1430 1431 1436 1440 1445 1450 1458 1461 1464 1467 1469 1472 1475 1477 1479 1481 1482 1484 1485 1486 1487 1488 1489 1491 1492 1493 1494 1495 1496 1498 1499 1501 1502
1418 1422 1428 1433 1437 1432 1423 1418 1417 1432 1437 1434 1436 1439 1442 1445 1450 1458 1461 1465 1468 1470 1473 1476 1478 1479 1481 1482 1484 1485 1486 1488 1489 1490 1491 1492 1494 1495 1496 1497 1498 1500 1501 1503
1416 1420 1425 1429 1437 1439 1424 1421 1427 1432 1431 1434 1438 1442 1445 1448 1453 1458 1462 1466 1469 1472 1475 1476 1478 1480 1481 1482 1484 1485 1487 1488 1489 1490 1491 1493 1494 1495 1497 1498 1499 1501 1502 1504
1413 1417 1420 1428 1435 1432 1429 1431 1433 1432 1434 1438 1441 1444 1447 1451 1455 1460 1463 1467 1471 1473 1476 1478 1479 1480 1482 1483 1484 1485 1487 1489 1490 1491 1492 1494 1495 1497 1498 1500 1501 1503 1505 1506
1415 1416 1421 1428 1432 1433 1433 1434 1435 1437 1439 1442 1445 1447 1451 1454 1459 1462 1466 1469 1472 1475 1477 1479 1480 1481 1483 1484 1485 1486 1488 1490 1491 1492 1494 1496 1497 1499 1500 1501 1503 1505 1507 1508
1419 1418 1422 1430 1433 1435 1438 1439 1440 1441 1443 1446 1449 1451 1454 1457 1461 1465 1468 1472 1474 1477 1479 1481 1482 1483 1484 1485 1487 1488 1490 1491 1492 1494 1496 1498 1500 1501 1503 1504 1506 1508 1509 1511
1421 1423 1426 1433 1434 1436 1440 1442 1443 1444 1446 1449 1452 1455 1458 1461 1464 1467 1470 1474 1476 1479 1481 1483 1484 1485 1486 1488 1489 1491 1492 1494 1495 1497 1499 1501 1503 1505 1506 1508 1509 1511 1513 1514